Regional Weather Roundup
Issued by NWS

Home | Current Version | Previous Version | Graphics & Text | Print | Product List | Glossary On
Versions: 1 2 3 4 5 6 7 8 9 10 11 12 13 14 15 16 17 18 19 20 21 22 23 24 25 26 27 28 29 30 31 32 33 34 35 36 37 38 39 40 41 42 43 44 45 46 47 48 49 50
000
ASUS43 KMPX 210810
RWRMN
WEATHER ROUNDUP FOR MINNESOTA
NATIONAL WEATHER SERVICE TWIN CITIES/CHANHASSEN MN
300 AM CDT MON AUG 21 2017


NOTE: "FAIR" INDICATES FEW OR NO CLOUDS BELOW 12,000 FEET WITH NO
SIGNIFICANT WEATHER AND/OR OBSTRUCTIONS TO VISIBILITY. N/A MEANS
CURRENT SKY AND/OR WEATHER CONDITIONS ARE NOT AVAILABLE.

MNZ060>063-068>070-210900-
   Twin Cities Metro

CITY           SKY/WX    TMP DP  RH WIND       PRES   REMARKS
TWIN CITIES    MOCLDY    69  59  70 NE5       30.02R
ST PAUL        CLOUDY    68  60  75 CALM      30.03R
CRYSTAL        MOCLDY    62  58  86 CALM      30.01R
BLAINE         PTCLDY    63  63 100 CALM      30.02R
LAKEVILLE      PTCLDY    64  64 100 CALM      30.03R
EDEN PRAIRIE   PTCLDY    68  62  81 NE5       30.01R
SOUTH ST PAUL  MOCLDY    70  56  61 NE3       30.02R
LAKE ELMO      MOCLDY    63  61  94 CALM      30.04R
$$
MNZ001>005-007-008-013>017-022>024-027-028-210900-
   Northwest Minnesota

CITY           SKY/WX    TMP DP  RH WIND       PRES   REMARKS
BEMIDJI        PTCLDY    48  46  93 CALM      30.04F
HALLOCK        CLOUDY    50  46  87 SE5       29.99F
ROSEAU         PTCLDY    52  46  82 CALM      30.01F
WARROAD        MOCLDY    52  48  87 SW7       30.02F
THIEF RVR FALL CLOUDY    50  47  89 CALM      30.03F
CROOKSTON      CLOUDY    54  48  82 SE6       30.02S
FOSSTON        CLOUDY    52  48  87 CALM      30.03F
DETROIT LAKES  MOCLDY    59  55  88 CALM      30.04F
MOORHEAD       CLOUDY    59  55  88 CALM      30.03S
PARK RAPIDS    CLOUDY    60  54  80 N5        30.04F
MAHNOMEN       FAIR      58  53  81 SE5       30.03S
$$
MNZ006-009>011-018-025>026-210900-
   North Central Minnesota

CITY           SKY/WX    TMP DP  RH WIND       PRES   REMARKS
BAUDETTE       PTCLDY    49  46  90 S3        30.02S
FLAG ISLAND    PTCLDY    63  46  55 W5        29.98F HAZE
INTL FALLS     CLEAR     44  43  96 CALM      30.02F
WASKISH        CLOUDY    48  46  93 CALM      30.04S
BIG FORK       CLOUDY    46  45  93 CALM      30.05S
LONGVILLE      CLOUDY    50  50 100 CALM      30.04F
GRAND RAPIDS   PTCLDY    56  54  93 N3        30.06S
CRANE LAKE     PTCLDY    45  45 100 CALM      30.06R
ORR            PTCLDY    48  45  87 CALM      30.02S
COOK           MOCLDY    48  48 100 CALM      30.05S
WALKER         FAIR      55  52  89 CALM      30.05S
$$
MNZ012-019>021-037-210900-
   Northeast Minnesota

CITY           SKY/WX    TMP DP  RH WIND       PRES   REMARKS
DULUTH         CLEAR     54  52  93 N5        30.03F
ELY            CLOUDY    50  48  93 CALM      30.04S
HIBBING        PTCLDY    47  46  97 CALM      30.04F
EVELETH        CLOUDY    49  46  91 CALM      30.05F
DULUTH HARBOR  CLEAR     59  55  88 CALM      30.02F
TWO HARBORS    CLEAR     57  54  88 NW3       30.02S
SILVER BAY     CLEAR     48  48 100 CALM      30.01F
GRAND MARAIS     N/A     55  52  89 W3        30.00R
G MARAIS ARPRT CLEAR     57  46  67 NW7       30.04R
$$
MNZ029>031-032-039>041-046>048-054>057-064-210900-
   West Central Minnesota

CITY           SKY/WX    TMP DP  RH WIND       PRES   REMARKS
FERGUS FALLS   PTCLDY    59  57  94 N7        30.01F
WHEATON        CLEAR     54  52  94 S3        30.03S
MORRIS         CLEAR     55  55 100 CALM      30.01S
ALEXANDRIA     CLEAR     59  54  83 NE7       30.04S
ELBOW LAKE     MOCLDY    61  56  84 NE7       30.00F
WADENA         LGT RAIN  57  55  94 N6        30.00F
GLENWOOD       CLEAR     57  55  94 NE6       30.03S
APPLETON       CLEAR     55  54  94 CALM      30.01S
BENSON         FOG       52  48  87 CALM      30.03S VSB<1/4
ORTONVILLE     CLEAR     55  54  94 MISG      30.01S
MADISON        PTCLDY    59  59 100 CALM      30.02R
WILLMAR        FAIR      63  57  82 E7        30.03S
$$
MNZ033>034-036-042>043-049>051-058-059-210900-
   Central Minnesota

CITY           SKY/WX    TMP DP  RH WIND       PRES   REMARKS
ST CLOUD       CLEAR     57  57 100 CALM      30.03R
SAUK CENTRE    FAIR      58  54  88 NE3       30.04S
PAYNESVILLE    PTCLDY    57  56  95 CALM      30.04R
AITKIN         FOG       46  46 100 CALM      30.03F VSB 1/2
PINE RIVER     CLOUDY    50  50 100 CALM      30.07F
BRAINERD       CLOUDY    55  53  93 CALM      30.04F
STAPLES        CLOUDY    55  54  94 N5        30.02F
LONG PRAIRIE   FAIR      55  52  88 CALM      30.04S
LITTLE FALLS   CLOUDY    55  54  94 CALM      30.03F
LITCHFIELD     CLEAR     63  61  94 NE3       30.03S
BUFFALO        CLEAR     60  57  89 CALM      30.03R
MAPLE LAKE     CLEAR     60  60  98 CALM      30.03S
HUTCHINSON     CLOUDY    62  60  94 E3        30.03S
$$
MNZ037-044-045-052-053-210900-
   East Central Minnesota

CITY           SKY/WX    TMP DP  RH WIND       PRES   REMARKS
PRINCETON      CLEAR     57  57 100 CALM      30.02S
MORA           PTCLDY    55  54  94 CALM      30.04F
CAMBRIDGE      CLEAR     59  57  94 CALM      30.02S
RUSH CITY      MOCLDY    55  53  95 CALM      30.02F FOG
MOOSE LAKE     CLEAR     50  48  93 CALM      30.02F FOG
HINCKLEY       FAIR      52  52 100 CALM      30.02F
CLOQUET        CLEAR     52  48  87 N3        30.03F
MCGREGOR       PTCLDY    48  46  93 CALM      30.04F
$$
MNZ071>073-080-081-089-090-097-098-210900-
   Southwest Minnesota

CITY           SKY/WX    TMP DP  RH WIND       PRES   REMARKS
MONTEVIDEO     CLEAR     55  54  94 CALM      30.02R
GRANITE FALLS  MOCLDY    60  59  97 CALM      30.03S
CANBY          CLEAR     58  56  95 CALM      30.03S
MARSHALL       MOCLDY    60  58  92 W5        30.03S
REDWOOD FALLS  CLOUDY    63  59  87 E3        30.02R
OLIVIA         CLEAR     57  55  94 NE3       30.01S
PIPESTONE      CLOUDY    64  61  88 E8        30.02S
WINDOM         CLOUDY    64  63  94 NE5       30.02S
WORTHINGTON    CLOUDY    65  63  93 E7        30.03R
JACKSON        CLOUDY    66  64  94 CALM      30.03R
TRACY          CLOUDY    64  63  97 CALM      30.04R
SLAYTON        CLOUDY    64  59  85 NE3       30.04S
$$
MNZ065>067-074>077-082>085-091>093-210900-
   South Central Minnesota

CITY           SKY/WX    TMP DP  RH WIND       PRES   REMARKS
MANKATO        CLOUDY    69  66  90 NE6       30.02R
NEW ULM        CLOUDY    66  63  88 E3        30.02R
ST JAMES       CLOUDY    66  64  94 CALM      30.03R
GLENCOE        CLOUDY    64  64  97 N3        30.02R
FARIBAULT      CLOUDY    66  64  94 N3        30.03R
OWATONNA       CLOUDY    68  66  94 NE6       30.01S
WASECA         CLOUDY    70  66  88 NE6       30.02R
ALBERT LEA     CLOUDY    72  70  94 CALM      30.03R
$$
MNZ078>079-086>088-094>096-210900-
   Southeast Minnesota

CITY           SKY/WX    TMP DP  RH WIND       PRES   REMARKS
ROCHESTER      CLOUDY    66  65  96 CALM      30.04R
RED WING       CLOUDY    68  63  83 CALM      30.01R
STANTON        CLOUDY    65  63  95 N3        30.01R
DODGE CENTER   CLOUDY    64  63  94 N3        30.03R
WINONA         CLOUDY    70  68  94 CALM      30.01R
AUSTIN         CLOUDY    66  64  94 CALM      30.03R
PRESTON        CLOUDY    65  63  91 S5        30.04R
$$
ABBREVIATIONS USED IN REMARKS
   TC - TEMPERATURES IN CELSIUS
  WCI - WIND CHILL INDEX
   HX - HEAT INDEX
  VSB - VISIBILITY
$$




USA.gov is the U.S. government's official web portal to all federal, state and local government web resources and services.